Temp
52 56 66 67 67 67 67 67 67 67 68 68 68 67 68 68 68 67 67 68 68 69 69 69 69 69 69 68 68 68 68 68 68 69 70 71 73 73 74 75 76 76 75
54 56 66 67 67 67 67 67 67 67 67 67 67 66 67 67 66 66 66 67 68 68 69 69 68 68 67 67 66 67 67 67 67 68 69 69 69 70 73 74 75 75 75
53 55 59 67 67 68 67 67 67 67 66 66 66 66 66 66 65 65 65 65 66 67 68 68 67 66 65 65 64 64 64 64 65 66 65 65 65 69 71 72 73 75 75
55 55 56 67 67 68 67 67 67 66 66 65 65 65 65 65 64 64 64 64 65 66 66 67 66 65 64 63 63 62 62 62 62 63 58 59 61 66 70 71 72 73 75
53 55 60 67 67 67 67 67 66 66 65 65 64 64 64 64 63 63 62 63 64 64 65 66 65 64 63 62 62 62 61 61 61 59 55 55 59 62 67 70 71 72 73
52 55 61 66 66 67 66 66 66 65 65 64 64 63 63 63 62 62 61 62 62 63 64 64 63 63 62 61 61 60 59 59 60 52 52 53 54 60 66 69 69 72 72
51 53 56 65 65 66 66 65 65 65 64 64 63 62 62 61 61 61 60 61 61 61 61 61 61 60 60 60 59 59 58 58 56 50 50 49 51 60 65 67 68 69 71
52 52 53 64 64 64 64 64 64 64 63 63 62 61 60 60 59 59 59 59 59 59 59 58 58 58 58 58 58 57 57 57 53 48 48 49 53 59 63 66 67 68 69
51 51 49 50 57 61 63 62 63 63 62 62 61 59 58 58 57 57 57 57 57 57 57 56 56 56 56 56 55 55 55 56 50 47 48 49 53 59 62 65 66 68 68
50 49 48 48 49 48 48 62 62 60 60 60 59 58 56 53 55 54 55 55 55 55 55 54 54 54 54 53 53 53 54 53 46 46 47 47 55 59 61 63 65 67 67
50 47 47 47 47 47 49 53 52 56 57 55 52 54 46 42 44 44 51 53 53 52 51 51 51 51 51 49 49 51 52 45 44 46 46 50 55 58 60 62 64 66 67
45 46 46 46 46 46 52 44 44 47 44 44 43 42 41 40 44 48 47 50 49 49 48 48 48 49 46 42 42 46 43 44 44 44 45 51 54 57 59 62 64 65 66
46 47 46 46 45 44 44 42 42 41 41 41 42 40 39 40 38 39 38 39 38 44 39 40 40 41 40 41 41 41 42 42 43 43 45 49 52 55 58 60 62 65 65
46 46 46 45 44 43 42 41 40 41 41 40 40 40 37 36 36 36 36 36 36 37 36 37 37 39 39 40 40 40 41 42 42 42 43 48 50 53 56 58 60 63 64
46 46 45 44 43 43 42 40 40 39 39 39 39 40 38 36 35 35 35 35 35 36 35 35 36 39 40 40 40 40 40 40 41 42 42 46 48 51 53 56 59 62 62
46 46 45 44 43 43 41 40 39 39 38 38 38 39 39 37 35 35 35 35 35 35 35 35 38 39 40 41 40 41 42 43 44 44 45 44 48 49 51 53 56 59 60
45 46 45 44 43 42 40 40 39 39 39 37 38 38 38 37 35 34 34 34 34 35 37 39 40 40 40 42 41 43 43 43 44 44 45 46 44 47 49 50 53 56 57
44 45 46 50 42 41 40 39 40 38 37 37 37 37 37 37 37 35 34 34 35 37 38 39 39 39 39 39 40 41 42 43 43 43 43 45 45 44 46 48 50 54 56
44 44 43 42 41 41 40 39 38 37 36 36 36 35 36 37 37 35 33 34 34 37 38 38 38 38 36 37 39 40 40 40 41 43 43 45 44 45 44 46 49 51 55
43 43 42 42 41 41 39 39 38 36 35 36 35 36 36 36 37 34 34 33 36 37 37 37 36 37 37 37 37 38 39 39 40 41 45 44 44 46 44 45 44 47 53
42 42 42 42 40 40 39 37 35 33 34 35 35 36 36 36 35 33 33 33 37 36 36 36 36 35 36 38 34 35 36 39 39 43 42 43 45 46 46 46 45 46 50
42 41 41 41 40 39 37 35 35 34 34 34 35 35 35 35 34 35 33 32 37 35 35 34 35 33 35 36 31 31 29 34 38 39 42 42 42 44 45 47 47 48 51
40 40 41 39 38 38 37 37 36 35 34 33 32 33 34 35 34 34 33 32 33 32 33 34 33 32 31 34 35 30 27 27 30 38 39 41 40 41 43 45 48 49 51
38 39 39 39 38 39 37 34 32 30 30 30 30 31 32 33 33 34 33 32 32 32 33 33 35 32 33 30 33 36 34 33 27 28 36 39 42 41 42 44 47 50 54
38 37 37 38 38 37 35 34 31 30 30 31 31 30 30 32 33 33 33 32 31 31 33 34 33 33 33 32 31 31 31 32 32 30 26 32 38 40 44 45 50 51 54
35 35 35 37 36 36 35 34 32 31 31 30 29 29 30 31 32 33 32 32 31 31 32 33 33 33 33 31 31 31 30 29 29 29 29 30 32 37 43 46 48 52 54
MSLP
1022.91 1022.63 1022.20 1022.06 1021.87 1021.82 1021.69 1021.48 1021.32 1021.11 1020.91 1020.73 1020.54 1020.36 1020.01 1019.87 1019.61 1019.26 1018.98 1018.67 1018.24 1017.82 1017.54 1017.31 1017.04 1016.77 1016.65 1016.52 1016.32 1015.80 1015.54 1015.30 1015.04 1014.75 1014.52 1014.35 1014.03 1013.80 1013.59 1013.26 1013.09 1013.21 1013.38
1022.80 1022.62 1022.30 1022.10 1021.86 1021.78 1021.70 1021.55 1021.41 1021.26 1021.13 1021.02 1020.89 1020.71 1020.35 1020.12 1019.93 1019.68 1019.36 1018.97 1018.50 1018.13 1017.81 1017.64 1017.43 1017.39 1017.21 1016.94 1016.59 1016.23 1015.86 1015.55 1015.31 1014.91 1014.73 1014.50 1014.34 1014.10 1013.66 1013.24 1012.92 1012.97 1013.20
1022.90 1022.62 1022.40 1022.11 1021.92 1021.79 1021.79 1021.67 1021.55 1021.44 1021.37 1021.30 1021.19 1021.04 1020.70 1020.40 1020.27 1020.09 1019.73 1019.34 1018.80 1018.32 1018.06 1017.86 1017.74 1017.66 1017.56 1017.35 1017.12 1016.84 1016.59 1016.28 1015.89 1015.49 1015.30 1014.97 1014.66 1014.03 1013.67 1013.39 1013.06 1012.75 1012.92
1022.87 1022.64 1022.31 1022.00 1021.95 1021.82 1021.79 1021.70 1021.69 1021.66 1021.60 1021.53 1021.47 1021.21 1020.94 1020.72 1020.59 1020.38 1020.16 1019.73 1019.16 1018.64 1018.33 1018.07 1017.89 1017.84 1017.80 1017.68 1017.52 1017.26 1017.01 1016.71 1016.36 1015.91 1016.01 1015.60 1015.17 1014.44 1013.72 1013.42 1013.15 1012.84 1012.70
1022.80 1022.53 1022.25 1022.07 1021.99 1021.90 1021.83 1021.76 1021.77 1021.80 1021.78 1021.72 1021.65 1021.45 1021.25 1021.05 1020.82 1020.70 1020.40 1019.96 1019.48 1019.06 1018.70 1018.26 1018.08 1017.98 1017.93 1017.79 1017.56 1017.29 1017.18 1016.87 1016.54 1016.42 1016.45 1015.95 1015.33 1014.75 1014.10 1013.43 1013.10 1012.82 1012.62
1022.85 1022.63 1022.30 1022.22 1022.11 1022.04 1022.04 1021.92 1021.95 1021.98 1021.88 1021.80 1021.74 1021.72 1021.58 1021.22 1020.98 1020.74 1020.51 1020.13 1019.76 1019.27 1018.87 1018.54 1018.42 1018.37 1018.27 1017.96 1017.65 1017.44 1017.24 1016.86 1016.38 1016.59 1016.47 1016.17 1015.72 1015.02 1014.09 1013.35 1013.02 1012.56 1012.33
1023.12 1022.88 1022.52 1022.37 1022.33 1022.27 1022.27 1022.18 1022.09 1022.17 1021.99 1021.85 1021.82 1021.96 1021.77 1021.44 1021.31 1020.95 1020.70 1020.31 1020.01 1019.66 1019.31 1018.98 1018.80 1018.66 1018.41 1018.14 1017.82 1017.54 1017.24 1016.78 1016.43 1016.52 1016.46 1016.23 1015.77 1014.92 1014.00 1013.35 1013.03 1012.56 1012.20
1023.21 1023.19 1023.00 1022.54 1022.50 1022.52 1022.38 1022.35 1022.24 1022.26 1022.12 1021.98 1022.03 1022.18 1022.07 1021.77 1021.61 1021.27 1020.92 1020.51 1020.24 1020.01 1019.63 1019.26 1019.00 1018.72 1018.46 1018.10 1017.89 1017.75 1017.41 1016.92 1016.63 1016.61 1016.37 1015.98 1015.61 1014.83 1014.05 1013.33 1012.95 1012.59 1012.33
1023.46 1023.45 1023.48 1023.30 1023.01 1022.82 1022.54 1022.56 1022.40 1022.40 1022.37 1022.15 1022.30 1022.41 1022.35 1022.18 1021.97 1021.61 1021.27 1020.84 1020.54 1020.25 1019.76 1019.57 1019.10 1018.79 1018.42 1018.12 1017.89 1017.67 1017.35 1017.00 1016.88 1016.68 1016.32 1015.85 1015.32 1014.59 1013.98 1013.27 1012.78 1012.47 1012.14
1023.60 1023.64 1023.64 1023.56 1023.50 1023.40 1023.19 1022.77 1022.71 1022.75 1022.57 1022.62 1022.59 1022.62 1022.63 1022.61 1022.28 1022.02 1021.56 1021.02 1020.69 1020.32 1019.84 1019.53 1019.23 1018.90 1018.46 1018.22 1018.05 1017.55 1017.15 1016.89 1017.01 1016.65 1016.20 1015.81 1015.00 1014.37 1013.85 1013.24 1012.81 1012.38 1012.16
1023.72 1023.78 1023.81 1023.85 1023.68 1023.59 1023.43 1023.35 1023.40 1023.17 1023.05 1023.14 1023.23 1023.05 1023.26 1023.19 1022.85 1022.46 1021.80 1021.24 1020.86 1020.48 1020.19 1019.70 1019.24 1019.01 1018.66 1018.47 1018.04 1017.55 1016.93 1017.05 1016.85 1016.43 1016.08 1015.50 1014.71 1014.16 1013.64 1013.20 1012.70 1012.26 1012.10
1023.86 1023.97 1023.97 1023.95 1023.89 1023.76 1023.58 1023.72 1023.59 1023.49 1023.57 1023.57 1023.67 1023.63 1023.51 1023.38 1022.98 1022.50 1022.14 1021.58 1021.37 1020.98 1020.73 1020.09 1019.54 1019.20 1019.03 1018.71 1018.13 1017.47 1017.10 1016.71 1016.49 1016.19 1015.82 1015.20 1014.45 1013.91 1013.47 1012.88 1012.35 1012.08 1011.86
1023.82 1023.97 1024.07 1024.09 1024.04 1023.93 1023.88 1023.86 1023.78 1023.84 1023.93 1023.85 1023.76 1023.80 1023.77 1023.48 1023.17 1022.91 1022.47 1022.17 1021.89 1021.35 1021.19 1020.59 1019.95 1019.59 1019.17 1018.65 1018.15 1017.67 1016.94 1016.40 1016.06 1015.80 1015.56 1014.99 1014.30 1013.67 1013.36 1012.87 1012.23 1011.65 1011.57
1023.81 1023.96 1024.05 1024.12 1024.13 1024.16 1024.12 1024.05 1024.02 1023.96 1024.04 1024.06 1024.01 1023.95 1023.83 1023.66 1023.43 1023.11 1022.81 1022.41 1022.08 1021.65 1021.19 1020.59 1020.02 1019.50 1018.98 1018.51 1018.05 1017.44 1016.84 1016.27 1015.81 1015.54 1015.19 1014.66 1014.11 1013.55 1013.15 1012.72 1012.35 1011.70 1011.36
1023.79 1024.02 1024.25 1024.26 1024.32 1024.32 1024.24 1024.28 1024.27 1024.29 1024.23 1024.21 1024.25 1024.11 1023.86 1023.71 1023.67 1023.37 1022.84 1022.43 1022.07 1021.50 1021.06 1020.49 1019.86 1019.14 1018.40 1017.95 1017.65 1017.31 1016.71 1016.07 1015.52 1015.18 1014.77 1014.31 1013.80 1013.26 1012.89 1012.49 1012.16 1011.68 1011.32
1023.66 1024.04 1024.28 1024.39 1024.45 1024.41 1024.40 1024.39 1024.45 1024.44 1024.44 1024.37 1024.36 1024.18 1023.86 1023.71 1023.67 1023.31 1022.86 1022.35 1021.90 1021.25 1020.72 1020.24 1019.48 1018.75 1018.14 1017.59 1017.09 1016.54 1015.92 1015.25 1014.68 1014.30 1013.97 1013.57 1013.30 1012.88 1012.53 1012.26 1011.89 1011.51 1011.07
1023.60 1023.94 1024.14 1024.32 1024.59 1024.55 1024.53 1024.48 1024.56 1024.52 1024.54 1024.59 1024.43 1024.24 1023.96 1023.73 1023.57 1023.31 1022.80 1022.25 1021.73 1021.06 1020.44 1019.73 1019.07 1018.39 1017.76 1016.94 1016.45 1015.75 1015.07 1014.54 1013.95 1013.53 1013.22 1012.82 1012.54 1012.27 1012.07 1011.98 1011.60 1011.24 1010.74
1023.62 1023.96 1024.07 1024.11 1024.70 1024.74 1024.77 1024.72 1024.73 1024.78 1024.77 1024.73 1024.52 1024.31 1024.06 1023.83 1023.50 1023.17 1022.73 1022.21 1021.54 1020.85 1020.10 1019.34 1018.62 1017.89 1017.23 1016.70 1015.93 1015.17 1014.40 1013.71 1013.22 1012.82 1012.45 1012.12 1011.83 1011.66 1011.54 1011.49 1011.23 1010.78 1010.18
1023.77 1024.08 1024.38 1024.77 1024.95 1024.91 1024.93 1024.98 1024.99 1025.01 1024.98 1024.82 1024.64 1024.46 1024.24 1023.84 1023.45 1023.17 1022.77 1022.16 1021.48 1020.55 1019.75 1019.03 1018.35 1017.61 1016.92 1016.19 1015.38 1014.53 1013.73 1013.07 1012.55 1012.03 1011.67 1011.26 1011.21 1010.97 1010.98 1010.92 1010.72 1010.13 1009.49
1024.02 1024.29 1024.65 1025.06 1025.17 1025.14 1025.12 1025.09 1025.18 1025.20 1025.19 1025.06 1024.83 1024.46 1024.25 1023.95 1023.54 1023.21 1022.68 1021.97 1021.13 1020.29 1019.51 1018.84 1018.15 1017.42 1016.68 1015.89 1015.17 1014.10 1013.17 1012.35 1011.80 1011.40 1011.00 1010.75 1010.55 1010.20 1010.33 1010.23 1010.22 1009.66 1008.84
1024.37 1024.61 1024.99 1025.24 1025.31 1025.28 1025.36 1025.42 1025.42 1025.69 1025.53 1025.13 1024.89 1024.67 1024.39 1024.03 1023.69 1023.18 1022.51 1021.86 1020.88 1019.98 1019.39 1018.74 1018.07 1017.30 1016.47 1015.90 1015.07 1013.77 1012.47 1011.54 1010.96 1010.71 1010.72 1010.14 1009.89 1009.66 1009.46 1009.55 1009.47 1009.02 1008.51
1024.70 1025.09 1025.33 1025.44 1025.57 1025.70 1025.74 1025.63 1025.63 1025.73 1025.57 1025.26 1025.23 1024.94 1024.62 1024.28 1023.69 1022.97 1022.43 1021.74 1020.47 1019.96 1019.38 1018.81 1018.14 1017.38 1016.69 1016.12 1015.53 1014.28 1012.47 1011.27 1010.77 1010.71 1010.05 1009.76 1009.59 1009.36 1009.09 1008.85 1008.82 1008.40 1007.96
1025.03 1025.37 1025.63 1025.82 1025.93 1025.98 1025.93 1025.82 1025.79 1025.78 1025.58 1025.44 1025.31 1025.11 1024.80 1024.26 1023.55 1022.90 1022.25 1021.57 1020.75 1020.26 1019.54 1018.94 1018.29 1017.71 1016.72 1016.07 1015.71 1015.32 1013.82 1012.77 1011.75 1009.94 1009.75 1009.49 1009.28 1008.83 1008.59 1008.25 1008.10 1007.79 1007.83
1025.28 1025.55 1025.85 1026.12 1026.14 1026.28 1026.30 1026.26 1026.40 1026.31 1026.06 1025.98 1025.90 1025.70 1025.01 1024.23 1023.59 1022.82 1022.05 1021.36 1020.74 1020.23 1019.65 1019.01 1018.22 1017.66 1017.00 1016.03 1015.36 1014.71 1014.61 1013.89 1012.93 1010.68 1009.71 1009.11 1008.57 1008.15 1007.84 1007.53 1007.41 1007.12 1006.86
1025.46 1025.82 1026.14 1026.31 1026.50 1026.66 1026.72 1026.63 1026.59 1026.42 1026.22 1026.12 1026.00 1025.64 1024.96 1024.26 1023.61 1022.78 1021.90 1021.22 1020.66 1020.14 1019.58 1018.82 1018.03 1017.35 1016.84 1016.05 1015.36 1014.70 1014.04 1013.36 1012.91 1011.97 1010.28 1009.02 1008.26 1007.52 1007.06 1006.86 1006.60 1006.67 1006.47
1025.82 1026.11 1026.43 1026.60 1026.92 1027.05 1026.98 1026.91 1026.65 1026.52 1026.40 1026.44 1026.12 1025.67 1025.07 1024.41 1023.57 1022.71 1021.91 1021.26 1020.70 1020.00 1019.36 1018.56 1017.85 1017.10 1016.47 1015.94 1015.21 1014.50 1013.85 1013.21 1012.55 1011.92 1010.91 1009.87 1008.98 1007.26 1006.46 1006.26 1006.19 1005.81 1006.10
Wind_Speed
1 4 7 9 11 11 12 13 13 14 16 17 17 17 16 18 17 18 18 18 18 18 18 18 18 20 20 20 21 20 19 18 18 18 17 18 18 16 15 14 13 9 12
3 2 7 9 11 12 11 12 13 14 16 17 18 18 17 18 19 19 18 19 18 18 18 18 18 19 19 20 20 20 21 20 19 19 18 17 16 17 16 15 13 9 12
4 2 2 8 9 12 11 12 13 14 15 16 17 18 18 18 20 19 19 20 19 18 18 18 18 18 19 20 20 20 20 20 20 20 20 10 11 16 16 16 17 12 14
4 1 3 8 8 12 11 11 13 13 14 14 16 18 19 19 20 19 20 20 19 19 18 17 17 17 18 19 19 19 20 20 20 20 11 12 12 17 16 16 17 16 13
3 4 5 10 10 12 11 11 12 12 13 12 14 16 18 18 19 20 19 19 19 19 19 18 17 17 19 20 19 19 20 20 20 15 10 10 10 13 19 19 16 16 15
4 5 7 10 8 11 11 10 10 12 12 11 12 14 17 17 19 20 19 19 19 18 18 19 18 18 20 20 20 20 20 20 19 6 9 11 12 17 19 17 20 12 16
4 5 5 9 9 10 10 9 9 11 11 10 11 13 15 16 18 19 19 18 18 20 19 17 18 19 20 20 20 20 20 19 12 9 9 10 10 19 18 17 20 19 19
6 5 6 9 9 9 8 9 8 12 11 9 10 12 13 16 16 19 19 19 19 19 19 18 18 18 19 19 19 19 19 19 9 8 10 8 15 19 19 19 19 18 21
5 6 5 5 7 10 9 8 8 12 10 9 10 11 13 15 16 19 20 20 20 20 19 18 17 17 17 17 17 18 19 19 9 7 10 7 17 20 19 19 18 17 18
4 4 4 4 3 5 5 8 10 11 8 10 11 12 12 13 15 18 19 20 21 21 19 19 18 18 17 17 18 18 18 17 8 8 7 7 20 20 20 20 19 17 16
2 3 3 4 3 4 4 6 9 10 10 11 10 12 9 5 6 9 18 21 22 21 20 19 18 18 18 16 18 18 19 5 6 6 5 18 20 21 19 20 20 18 17
3 1 1 3 3 4 3 5 5 5 4 4 4 5 4 5 7 11 15 20 19 18 19 18 17 17 14 6 7 14 5 8 7 7 5 20 22 21 20 20 19 19 18
4 2 1 2 3 4 4 3 3 3 3 3 6 5 5 4 4 5 4 5 5 12 5 8 8 5 7 6 7 8 9 8 6 6 10 19 22 22 20 20 22 19 17
6 4 1 2 4 5 3 3 3 3 2 3 4 5 4 3 5 5 4 5 5 4 7 6 5 7 8 8 8 10 11 9 7 6 9 21 21 23 21 20 21 22 19
6 5 2 2 4 3 5 3 4 3 3 4 4 4 4 4 4 4 5 4 4 5 5 6 6 8 10 11 10 11 11 11 11 7 6 20 22 23 22 22 22 23 23
7 6 4 3 3 4 4 4 3 3 4 4 3 4 6 4 4 4 6 6 6 4 5 6 7 7 8 9 11 12 12 12 13 13 9 9 21 23 23 23 22 23 23
6 7 5 5 3 5 5 4 4 4 4 4 3 5 6 6 5 5 6 6 6 6 9 7 8 8 8 7 10 11 10 11 11 11 10 10 10 20 23 22 22 21 22
7 7 5 5 5 5 5 4 4 4 3 3 4 4 7 7 7 6 6 6 6 7 7 7 8 8 7 7 8 8 11 10 11 12 10 9 8 8 13 18 19 18 21
7 7 6 5 4 5 5 4 4 4 4 4 4 4 6 7 8 6 6 6 7 7 8 7 7 8 10 8 9 10 9 9 11 9 11 10 7 10 7 11 17 18 19
6 6 6 4 3 4 3 3 3 3 2 4 4 4 6 6 8 7 6 7 8 8 9 7 10 9 9 9 10 11 10 10 8 8 6 7 9 9 9 9 8 9 18
5 7 5 5 2 3 3 2 2 2 2 3 4 7 8 8 8 7 6 7 9 9 11 10 9 10 8 10 8 10 8 9 6 3 9 7 6 7 6 7 7 6 8
7 6 5 5 5 3 2 1 1 1 1 1 3 6 7 7 7 8 7 7 10 8 11 10 11 8 8 8 7 11 6 6 3 13 6 5 4 5 5 8 10 10 9
7 7 6 5 4 4 4 3 3 2 2 3 4 4 7 8 9 8 8 7 8 7 7 10 8 11 9 7 10 6 4 4 13 2 8 3 6 4 4 7 10 11 10
6 6 6 5 5 4 4 4 3 0 3 2 2 4 6 7 8 9 8 8 7 6 10 8 9 8 9 8 7 3 7 7 4 8 2 9 4 8 7 6 8 10 10
7 7 6 6 6 4 4 4 2 3 1 2 3 6 6 6 7 9 9 8 8 7 9 10 10 9 7 8 7 7 8 5 8 5 9 7 8 4 5 6 7 8 9
6 6 5 6 4 4 4 4 5 5 5 5 5 5 6 6 6 9 11 8 8 8 10 10 10 10 9 8 8 8 7 5 5 6 6 9 10 7 5 5 6 6 7
Wind_Direction
316 294 74 61 52 51 44 40 37 36 36 31 30 28 25 29 24 24 19 15 13 12 12 12 12 13 9 7 4 5 2 357 353 349 341 332 326 325 313 303 269 251 227
138 273 79 62 52 55 46 42 39 39 37 35 32 29 23 28 27 20 17 13 12 10 10 9 12 10 7 5 4 3 1 1 356 353 338 326 329 325 321 324 289 241 228
163 146 7 70 48 52 46 44 41 38 37 35 33 31 27 26 27 18 14 11 7 8 6 6 9 9 6 4 1 357 354 349 347 344 344 338 332 319 322 321 325 267 249
174 79 358 64 52 43 46 43 43 38 33 32 29 31 29 26 24 19 13 8 7 3 2 2 2 6 5 1 357 354 350 345 342 338 344 334 328 315 313 320 322 318 275
94 44 46 51 37 41 42 38 42 35 29 31 29 28 25 25 24 17 12 9 6 3 357 355 358 0 356 351 348 347 344 338 332 346 342 331 325 320 312 307 309 306 307
83 46 68 55 55 43 39 32 40 28 21 30 29 27 20 24 19 16 12 8 4 359 2 0 356 347 343 342 340 342 338 336 334 4 339 330 329 315 314 315 323 320 297
96 41 43 66 55 45 38 33 42 24 24 25 31 26 20 21 15 13 9 6 4 1 351 344 343 337 335 333 335 337 334 333 336 351 334 323 317 317 311 310 315 314 320
112 65 39 57 71 50 41 43 42 20 26 23 33 25 21 17 14 10 6 1 359 351 345 346 336 332 331 330 333 333 331 327 348 337 321 314 315 313 313 306 306 319 317
105 82 50 30 50 44 51 41 34 21 19 39 41 27 25 17 17 9 5 358 357 350 345 340 339 338 332 331 331 325 325 321 345 314 314 314 309 311 308 307 303 309 310
101 83 48 32 36 44 30 35 38 27 33 51 37 32 32 23 17 8 4 357 352 347 345 339 337 334 334 333 325 320 318 330 306 296 300 301 307 305 304 305 303 300 303
108 72 43 18 20 25 44 26 34 27 56 52 36 35 35 6 340 11 0 355 351 346 347 340 340 335 335 333 324 317 321 303 289 294 285 301 302 302 301 298 297 293 296
165 121 32 8 15 28 34 43 35 48 70 53 44 39 22 10 356 9 360 355 349 339 340 336 335 333 331 312 309 319 296 296 292 289 289 299 300 298 297 295 290 289 291
161 152 198 352 31 45 47 49 38 54 59 39 49 40 18 1 350 353 345 331 318 326 317 318 312 301 306 303 305 301 300 300 293 292 290 295 295 294 294 291 297 292 293
157 174 169 18 55 60 67 53 53 63 47 52 46 33 18 357 351 342 328 314 306 298 302 300 299 303 306 304 304 303 303 303 297 294 290 294 291 291 289 281 280 286 299
158 172 180 89 78 81 71 62 54 51 58 69 46 15 10 358 345 320 314 305 293 295 291 298 310 324 325 323 317 312 307 299 294 289 285 290 290 287 286 279 277 277 282
154 172 158 108 108 96 83 70 60 63 74 59 35 7 359 347 329 322 318 309 299 299 300 305 321 322 321 322 317 310 305 300 294 292 289 287 288 285 282 280 276 275 279
168 158 151 126 107 84 78 69 56 50 73 56 25 3 350 345 323 318 311 310 300 309 320 327 326 329 322 296 303 311 307 296 292 284 281 278 271 275 279 278 276 273 271
146 157 159 104 97 82 73 63 60 68 65 48 21 357 348 333 324 325 317 305 311 324 330 333 335 320 312 310 300 300 307 293 285 280 273 268 261 262 272 275 274 268 258
156 142 113 107 100 96 71 66 61 72 59 33 9 352 329 331 330 329 309 303 315 333 334 334 325 319 324 312 307 306 298 289 285 277 271 265 261 267 254 257 262 257 252
140 119 108 115 105 88 61 52 63 57 38 19 355 350 339 332 332 318 307 316 336 338 339 335 326 326 323 312 321 303 299 286 272 267 270 283 282 257 238 240 243 252 250
119 114 122 123 51 56 18 359 27 15 338 360 3 343 336 332 319 309 325 328 341 345 341 338 323 326 323 331 316 316 287 279 254 331 306 265 269 282 215 232 233 233 250
134 119 109 96 69 45 26 1 65 293 9 354 345 331 337 316 318 330 327 333 345 347 343 335 329 330 319 328 322 306 322 325 357 319 282 269 259 281 269 237 235 227 234
133 133 125 106 91 58 35 25 19 5 5 360 344 345 334 330 331 330 329 326 333 341 335 333 323 325 318 317 329 299 328 310 322 293 304 289 288 262 248 249 239 222 224
139 123 116 112 83 57 33 57 55 63 27 329 317 303 305 317 323 328 330 331 329 332 340 328 318 306 321 318 314 251 287 288 306 311 293 309 312 298 264 243 234 214 219
132 130 117 97 72 46 48 65 59 46 19 323 316 312 315 323 322 330 339 336 334 330 332 323 320 323 311 305 312 311 302 285 267 276 303 318 315 299 273 228 215 199 210
120 112 111 97 65 41 56 49 56 44 6 344 325 329 334 330 328 339 339 335 327 327 332 329 319 313 324 317 307 302 295 291 282 277 281 295 285 289 249 211 217 198 198